Wind_Speed
12 12 12 12 14 15 15 15 17 19 20 19 18 18 18 18 19 19 18 17 16 15 15 15 15 15 14 14 13 13 14 13 13 14 14 14 15 15 15 15 15 16 17 18 18 18 18 18 18 19 19 19 18 17 16 16 16 16 16 16 16 15 15 15 15 14 14 14 13 10 7 5 4 4 3 3 3 3 2 3 3 3 4 5 5
12 12 13 14 14 14 15 15 16 17 18 18 18 18 18 19 20 20 19 18 17 17 16 16 16 15 15 15 14 14 15 14 14 15 15 15 15 15 14 14 15 16 17 16 15 14 14 14 15 15 16 17 16 16 16 16 16 15 15 15 15 14 14 14 13 13 13 12 10 7 5 3 3 3 3 2 2 2 2 2 2 3 3 4 5
13 14 14 14 14 14 15 16 16 16 17 17 17 18 18 19 21 20 19 19 19 17 17 17 16 15 15 15 15 15 15 15 15 15 16 16 15 14 14 14 16 15 14 13 12 12 11 10 10 11 12 13 13 14 14 14 14 14 13 13 13 13 13 12 12 11 10 8 6 4 3 2 2 2 2 2 2 1 1 2 2 2 3 3 4
14 15 15 14 14 15 15 15 16 16 17 17 16 18 18 19 19 20 20 20 19 18 17 17 16 16 16 16 16 16 16 16 16 16 15 15 14 13 14 14 14 13 11 10 10 10 9 8 8 9 9 10 11 11 12 12 11 11 11 11 11 11 11 11 10 9 6 5 4 3 2 2 2 2 2 2 2 2 1 2 2 2 2 3 3
15 16 16 15 15 16 16 16 16 16 17 17 16 17 18 18 18 19 20 20 20 19 17 16 16 16 16 17 17 16 16 16 16 15 14 13 13 13 13 12 12 11 10 9 9 9 9 9 10 10 10 10 10 10 9 9 9 9 9 9 9 10 10 9 7 5 4 3 2 2 2 1 1 2 2 2 3 2 2 2 3 3 2 2 3
17 17 17 17 16 16 17 16 16 16 18 18 17 17 18 17 18 19 20 20 20 19 18 17 16 16 16 16 16 16 16 16 15 14 13 12 12 13 12 11 11 11 9 9 8 9 9 9 10 10 10 9 9 8 8 8 7 8 8 8 8 9 8 6 4 3 2 2 2 1 1 1 1 2 3 4 4 4 3 4 4 4 4 3 3
19 19 18 18 18 17 17 17 17 17 18 19 18 17 17 18 18 18 19 19 19 19 18 17 16 16 16 16 15 15 16 15 14 12 12 12 12 11 10 10 10 10 8 8 7 8 8 9 9 8 8 8 8 7 7 6 6 7 7 7 7 6 5 4 3 3 2 1 1 1 2 2 2 3 4 5 5 5 5 5 5 5 5 4 3
21 20 18 19 19 18 18 18 18 18 19 20 19 18 18 18 18 18 18 18 18 18 18 17 16 16 16 16 15 15 15 13 12 11 11 12 11 10 9 9 9 8 7 7 7 7 8 9 8 8 8 8 7 7 6 6 6 6 6 5 4 3 3 3 3 3 3 2 1 2 3 3 4 5 5 5 5 5 5 5 5 5 5 4 3
22 20 20 21 20 19 20 20 19 19 20 21 20 19 18 17 18 18 18 18 18 18 18 17 17 17 17 16 15 14 13 12 11 11 11 11 11 9 8 8 9 8 7 7 6 7 8 9 9 8 8 8 7 7 7 7 6 5 5 4 3 3 3 3 4 4 3 2 2 3 4 4 4 4 4 5 4 4 4 4 4 4 4 3 2
26 23 22 22 22 21 21 21 21 20 21 22 21 20 19 18 17 17 18 18 18 18 17 17 17 17 16 15 14 13 13 11 10 10 10 12 12 9 8 8 9 9 7 6 6 6 8 9 9 8 8 8 7 7 7 6 5 4 5 5 4 3 3 4 4 3 2 1 2 3 4 4 3 2 2 3 3 3 3 3 2 2 2 2 2
29 29 26 24 24 23 23 23 22 21 22 22 22 22 20 19 17 16 17 17 17 17 17 17 17 16 15 14 13 12 12 11 10 10 11 13 12 9 8 8 8 7 6 5 5 6 7 8 8 8 8 8 7 6 6 5 4 4 4 4 5 5 5 4 3 2 1 2 3 3 3 2 1 1 1 2 3 3 3 3 3 3 2 2 2
29 32 30 25 24 24 24 24 23 22 21 22 23 23 21 19 18 17 17 17 18 18 17 17 16 15 14 13 13 12 12 10 9 10 11 13 12 10 8 8 7 6 5 4 4 5 6 7 8 8 8 8 8 6 6 6 5 5 4 4 5 6 5 4 2 2 2 2 3 2 2 1 1 2 3 4 5 5 5 5 5 5 4 4 5
30 31 30 28 27 26 26 26 26 23 21 22 23 23 22 20 19 18 18 19 19 18 18 16 15 14 14 14 14 13 11 10 9 10 11 12 11 9 8 8 7 5 4 4 4 4 5 6 7 8 8 7 8 7 7 7 6 6 6 5 5 6 4 3 2 1 2 3 3 2 1 0 2 4 6 6 7 7 7 7 7 8 8 8 8
30 30 30 31 31 29 29 29 27 23 21 22 23 23 22 22 20 19 19 20 19 19 18 17 15 15 15 15 14 13 11 10 10 11 11 12 11 9 8 8 8 6 4 4 4 4 5 6 7 8 7 6 6 6 6 7 7 7 7 6 6 5 4 3 2 1 2 3 3 2 1 2 5 6 7 8 8 9 9 9 10 10 11 11 10
29 30 30 32 31 30 30 31 28 23 21 22 23 23 23 21 20 20 20 20 19 19 18 17 16 17 17 16 14 13 12 11 10 11 12 12 10 9 8 7 8 6 4 4 5 5 6 7 7 7 7 6 6 6 6 6 7 8 8 8 7 5 4 3 2 1 2 2 2 2 2 5 7 8 9 9 10 10 10 10 10 11 12 11 11
28 29 29 30 32 32 30 32 31 25 23 22 22 23 23 21 21 21 20 19 19 19 18 18 18 18 17 15 14 12 11 11 11 12 12 12 10 9 8 7 8 7 5 5 5 5 6 6 7 7 7 7 7 7 7 6 7 8 8 8 8 6 5 4 2 1 1 2 2 3 4 7 9 9 9 10 11 11 10 10 10 11 11 11 10
26 27 28 29 32 33 32 33 32 27 24 23 22 24 23 22 22 22 21 20 19 19 18 19 19 19 18 16 14 12 12 11 12 12 12 11 10 9 8 7 7 8 6 6 5 5 5 6 7 8 8 8 7 7 7 6 8 8 8 8 7 6 5 4 2 1 1 1 2 4 6 8 9 10 10 11 11 11 10 10 10 10 10 9 9
25 25 27 29 31 33 33 32 31 27 24 23 23 24 24 23 24 24 23 22 21 20 19 20 19 19 18 15 13 13 13 12 12 13 12 11 11 9 8 7 8 9 8 7 6 6 6 6 8 8 8 8 7 8 8 7 8 8 8 7 6 6 5 4 3 2 1 1 3 5 8 9 10 10 11 11 11 10 9 9 9 9 8 8 7
27 26 27 28 30 32 32 31 30 28 25 24 24 25 24 23 25 25 24 24 23 21 21 21 20 19 17 15 14 14 13 13 13 13 12 11 11 10 9 9 10 11 10 9 8 7 7 7 7 8 8 8 8 9 9 9 9 9 8 7 6 6 5 4 3 3 2 2 5 7 8 9 10 10 10 10 10 9 9 9 8 7 6 6 5
28 27 28 28 29 31 31 31 31 30 27 25 25 26 26 25 25 26 26 25 23 22 22 22 21 19 17 16 16 15 14 14 14 14 13 11 11 10 10 10 11 11 11 10 9 9 8 8 8 9 9 9 9 10 10 10 10 9 7 7 6 6 5 4 4 4 3 3 5 8 9 9 9 9 9 9 9 9 8 8 7 6 5 4 4
26 27 27 27 28 30 30 29 30 30 27 26 27 27 26 26 27 28 27 26 24 23 23 23 22 20 18 17 17 16 16 16 15 15 15 12 11 11 10 11 11 11 11 11 10 10 10 9 9 9 10 10 10 10 10 11 10 8 7 7 7 6 5 5 4 4 4 4 6 8 9 9 9 9 9 9 9 8 7 6 5 4 4 3 3
24 25 24 23 25 26 26 26 28 28 26 27 27 26 24 25 27 28 27 26 25 24 24 23 21 20 19 18 17 17 17 17 16 17 17 14 12 12 11 11 11 11 11 11 11 10 10 10 10 10 11 12 12 11 11 10 9 8 7 7 7 6 5 5 5 5 6 6 6 8 9 10 10 10 10 9 9 7 6 4 3 3 2 2 2
22 21 19 18 20 20 23 27 29 28 25 26 27 26 24 23 25 27 26 26 26 25 23 22 20 20 20 18 17 18 17 17 18 18 17 16 14 12 12 11 12 12 12 12 12 11 11 12 11 11 12 13 13 12 12 10 9 8 8 7 7 6 6 6 6 6 7 7 8 9 10 11 11 11 10 10 8 6 5 4 3 2 2 2 3
20 17 16 15 16 17 22 26 28 26 23 25 26 26 24 23 24 26 27 26 25 24 22 21 21 21 20 18 18 18 18 18 18 18 17 16 14 13 12 12 13 12 11 12 13 12 13 13 13 12 13 14 14 13 12 11 10 9 8 8 7 7 6 6 6 6 8 9 10 11 12 12 11 11 10 9 8 6 5 4 4 4 4 4 4
17 13 14 16 16 16 19 22 23 22 23 25 26 25 24 24 25 26 27 26 24 23 22 21 21 20 20 19 19 19 19 19 18 17 17 16 15 14 13 13 13 12 12 13 13 13 14 14 14 13 13 14 14 14 13 12 11 10 9 8 8 7 7 6 6 7 8 10 12 13 13 13 12 11 10 9 8 7 6 6 5 5 5 6 6
18 14 14 17 18 19 18 19 20 21 24 25 25 25 25 25 25 25 27 28 27 25 23 22 22 21 21 20 20 20 20 20 19 18 18 16 16 15 14 14 13 13 13 14 14 14 14 14 14 14 14 15 15 15 15 14 13 11 10 9 9 8 7 7 7 7 9 11 13 14 14 14 13 12 11 10 9 9 8 7 6 6 7 7 7
18 15 15 16 18 20 19 19 20 22 24 23 24 26 26 27 26 26 29 29 28 26 24 23 23 22 21 20 20 21 21 21 20 18 18 17 17 17 15 14 14 14 14 14 15 15 14 14 15 15 15 15 16 16 17 16 15 13 12 11 10 9 8 8 7 7 9 11 13 14 15 14 13 12 11 11 10 9 8 7 7 8 8 8 9
14 13 14 14 15 17 19 20 20 22 22 22 24 26 27 28 27 26 28 27 25 24 23 24 24 23 22 21 21 22 22 22 21 20 19 19 19 18 16 15 14 14 14 15 15 15 15 15 16 17 16 16 16 17 17 18 17 15 13 12 11 11 9 9 8 8 9 11 12 14 14 14 13 12 11 11 10 9 9 8 8 9 9 10 10
12 12 13 14 14 15 18 20 20 21 22 23 25 26 27 28 27 26 26 26 25 24 24 25 25 23 23 22 22 23 23 23 22 21 21 20 19 18 17 15 15 15 15 16 16 16 16 16 16 17 17 17 17 17 18 19 18 16 15 13 13 12 11 9 9 9 9 10 12 13 14 14 14 12 12 11 10 10 9 10 10 10 10 11 10
13 13 13 13 14 16 18 20 21 22 22 24 25 26 28 28 28 27 26 27 27 25 26 27 25 23 23 23 23 23 24 24 24 22 22 22 20 18 17 16 16 17 17 17 17 17 17 17 16 18 19 18 18 18 19 19 19 18 16 14 14 13 12 11 10 10 9 10 11 12 13 14 14 13 12 12 11 10 10 11 11 11 11 11 10
15 14 14 14 14 15 18 20 22 23 24 25 26 27 29 29 28 27 26 27 28 28 29 28 25 24 24 24 24 24 25 25 25 23 22 22 19 17 18 17 17 18 18 17 17 18 18 17 17 18 19 19 20 20 19 19 19 18 16 15 14 14 13 12 11 11 10 10 11 12 13 14 14 13 13 12 12 11 12 12 12 12 12 11 11
16 16 15 14 15 15 16 19 21 22 24 25 26 28 30 30 29 28 27 28 29 30 30 28 27 26 25 25 27 26 25 25 24 22 20 19 17 17 19 19 18 19 19 18 18 17 16 17 17 17 18 20 20 20 20 20 19 19 17 16 15 14 14 13 13 12 11 11 12 13 14 14 14 14 14 14 13 13 13 13 13 13 13 12 11
17 18 16 15 16 15 15 17 19 20 21 23 26 28 30 30 29 28 29 30 31 31 29 28 28 27 26 27 28 26 25 24 23 21 18 18 18 19 20 20 20 20 19 19 19 18 18 17 17 17 18 19 20 21 20 20 20 20 18 17 15 15 15 14 14 14 13 12 12 13 14 15 15 15 15 15 15 14 14 14 14 14 14 13 13
17 18 18 18 18 17 16 16 19 20 20 23 26 28 29 29 29 28 29 31 32 31 29 29 28 27 27 28 27 26 25 24 24 21 18 19 20 20 20 21 21 21 20 20 19 20 20 18 17 17 17 18 20 21 21 21 21 20 19 17 15 15 15 15 15 15 14 13 12 13 14 15 16 16 16 16 15 15 15 15 15 15 14 14 14
18 17 19 20 19 18 17 17 19 22 22 23 26 29 29 29 29 29 30 31 31 31 31 30 29 27 28 28 26 26 25 25 25 22 20 20 20 21 21 22 22 22 22 22 21 21 20 18 17 18 18 19 21 22 22 22 22 20 19 17 15 15 15 15 15 15 15 14 13 13 14 15 16 17 16 16 16 16 16 16 16 16 16 16 15
21 19 21 22 21 20 18 17 19 23 24 24 26 29 30 29 29 30 31 32 32 31 31 30 28 28 29 28 27 26 26 26 24 22 21 21 20 21 21 22 23 24 23 23 22 21 20 19 17 17 19 20 21 23 23 23 22 21 18 17 16 16 15 16 16 16 16 16 15 14 14 15 16 17 17 17 17 16 16 17 17 17 17 17 17
20 19 21 23 22 21 19 18 19 22 25 26 27 29 31 30 29 30 31 31 31 31 31 30 30 28 27 26 24 25 27 26 23 22 21 21 21 22 22 23 24 24 24 23 22 21 21 19 18 18 19 20 22 23 23 23 22 20 18 17 16 16 16 16 17 16 17 17 16 16 16 16 17 18 18 18 17 17 17 17 18 18 19 18 18
17 18 22 24 23 21 20 20 21 21 23 26 28 29 31 32 31 31 31 31 30 30 30 31 30 26 24 24 24 26 27 24 23 23 22 22 22 23 24 24 24 25 24 23 23 22 22 20 19 19 20 21 21 22 22 22 21 18 17 16 16 16 16 16 17 17 17 18 18 18 17 17 18 18 19 18 18 18 18 19 19 19 19 19 19
18 20 23 24 23 22 23 23 23 21 21 25 28 29 32 33 33 32 32 31 29 29 29 30 29 26 26 26 26 28 27 24 24 25 24 24 24 24 25 25 25 26 25 24 24 23 23 22 20 20 21 22 22 22 22 21 19 17 16 15 16 17 17 16 17 17 18 19 19 19 18 18 18 19 19 19 19 19 19 19 20 20 20 20 21
20 22 24 25 25 25 25 26 25 23 24 27 28 28 31 33 33 34 33 30 27 28 30 30 27 27 29 29 27 28 27 25 26 27 27 27 26 25 25 25 26 27 26 25 25 25 23 23 22 21 21 22 23 23 22 20 18 16 15 15 17 18 17 16 17 17 18 18 19 19 19 18 18 19 20 20 20 20 20 20 20 21 21 22 23
20 22 24 26 26 27 27 28 27 25 26 28 27 27 29 30 32 34 32 29 28 29 30 28 27 28 30 30 29 29 27 26 26 27 27 27 26 25 25 25 25 26 25 25 26 25 24 24 23 22 22 23 23 23 22 20 18 16 16 18 19 18 17 16 16 15 15 16 17 18 18 18 18 19 19 19 19 19 20 21 21 22 22 23 24
20 20 23 26 28 29 30 30 28 27 27 27 26 26 28 29 31 34 34 32 30 30 28 27 28 29 29 28 29 29 27 25 27 27 26 25 24 24 25 24 24 25 24 24 25 25 24 24 24 24 25 24 23 24 22 21 20 18 18 19 18 18 17 16 15 14 13 14 15 16 17 17 17 17 17 18 19 19 21 22 22 22 23 24 25
23 21 21 23 27 30 32 31 31 29 28 28 26 25 28 30 31 35 38 35 31 29 29 29 29 29 28 28 30 30 27 27 28 27 26 24 23 24 24 23 23 24 23 24 25 25 23 25 25 26 27 27 25 24 24 23 23 22 20 20 19 18 17 15 14 14 12 12 12 13 15 15 15 16 17 18 20 21 22 23 23 23 25 26 27
24 23 21 22 24 28 32 33 33 31 30 29 27 27 30 32 34 37 40 37 33 32 32 30 29 28 28 29 30 30 28 27 27 26 25 24 23 24 24 24 23 23 23 24 25 24 23 25 25 24 27 29 27 27 27 26 25 25 24 23 21 19 17 15 14 13 12 11 11 12 13 14 14 16 17 18 21 23 23 23 24 25 27 28 29
25 24 23 22 22 25 30 32 33 33 32 30 29 29 32 33 35 39 40 36 34 35 33 30 29 28 28 29 30 29 29 28 28 27 26 25 25 25 25 25 25 24 24 23 24 23 22 23 24 23 24 25 25 27 30 29 29 28 27 26 24 20 17 15 15 14 12 12 12 12 13 15 15 16 18 20 24 25 25 25 27 28 29 31 32
26 24 23 22 22 23 27 31 32 34 34 32 31 31 33 34 35 39 40 37 35 35 33 31 29 29 28 29 30 29 29 29 29 28 27 27 26 26 27 27 27 26 25 24 24 24 22 22 24 23 21 22 22 22 25 26 28 29 30 30 28 22 18 18 18 16 14 14 14 13 15 18 18 16 19 23 25 26 26 27 28 30 30 31 32
27 25 23 23 23 23 26 29 32 34 34 33 33 34 35 35 36 40 41 37 34 33 33 32 31 30 30 31 32 31 30 31 30 29 28 28 28 28 28 28 28 27 26 26 26 26 25 24 25 23 22 23 22 20 20 22 25 29 33 34 31 24 20 19 19 19 18 17 16 15 17 20 19 17 20 25 26 27 29 29 28 29 30 31 32
25 25 24 23 23 23 26 30 33 35 34 34 35 36 36 36 37 40 41 37 34 33 32 32 32 32 32 33 32 30 28 29 30 29 28 28 28 28 29 28 28 28 28 28 28 28 28 27 26 24 23 24 23 21 21 22 22 27 32 33 29 23 19 20 21 23 22 20 19 18 18 21 22 21 22 26 26 27 30 32 29 29 31 33 34
25 25 25 24 23 23 26 30 34 35 34 34 36 36 36 37 38 40 40 37 35 34 33 33 35 35 33 32 31 29 26 27 29 28 28 28 27 28 28 28 28 28 28 29 29 29 29 28 27 26 25 24 24 22 22 22 21 22 26 28 25 21 21 23 25 26 25 22 21 21 20 23 25 24 23 26 26 27 30 33 33 32 34 35 35
23 24 24 23 23 23 25 29 33 35 35 35 36 37 37 38 39 39 38 36 35 35 33 35 38 37 34 32 31 30 28 28 29 28 27 27 27 27 27 26 26 26 26 28 28 29 29 29 28 28 26 25 24 23 22 22 22 21 23 25 24 23 24 26 26 27 26 23 21 22 23 25 26 26 24 25 28 29 32 34 35 35 36 34 33
20 21 21 21 21 21 23 26 31 35 35 35 37 37 38 39 39 38 37 35 35 36 35 37 40 39 36 34 34 31 30 31 30 27 26 26 26 25 25 24 24 24 25 26 27 28 29 29 28 27 26 26 25 24 23 23 23 23 23 24 24 24 26 27 28 30 30 24 20 23 26 26 26 27 26 26 28 32 34 34 33 34 34 33 31
Wind_Direction
241 233 228 230 237 239 238 237 237 240 240 239 235 231 228 225 228 231 234 235 233 233 238 245 249 253 257 259 261 263 266 269 272 275 278 281 283 284 284 283 283 283 283 282 280 279 278 275 268 260 256 256 259 263 267 272 277 283 287 291 295 300 304 307 309 310 313 314 313 309 306 305 303 304 310 317 332 346 5 20 24 22 24 33 35
237 233 234 241 246 242 238 236 238 240 240 240 237 233 230 228 229 231 234 237 237 235 237 243 248 252 257 261 264 266 271 276 279 283 285 287 288 287 286 287 288 288 285 281 278 278 279 275 266 257 253 253 256 260 264 269 274 280 285 288 293 298 302 304 307 310 313 313 309 301 295 297 297 295 298 305 317 335 355 12 22 22 18 25 28
240 241 243 245 245 243 241 239 241 243 243 241 238 235 231 230 233 233 234 237 239 237 236 241 245 251 256 260 264 269 274 279 283 286 289 290 289 287 290 292 291 289 285 279 277 278 279 276 265 255 251 250 252 255 259 264 270 276 282 287 291 295 299 301 304 308 310 308 298 288 284 289 290 284 282 294 304 316 341 357 9 15 10 12 16
246 248 247 243 242 244 245 241 241 243 245 242 237 236 233 231 235 235 235 237 239 239 237 240 244 250 255 260 265 271 276 280 283 286 288 288 288 291 293 293 290 289 286 279 275 273 272 269 261 252 247 245 247 250 255 260 267 273 279 284 288 292 295 297 301 303 303 296 281 275 273 274 277 273 274 287 298 306 328 337 335 342 345 353 358
248 249 247 244 242 243 243 241 239 240 243 244 240 236 234 232 232 234 237 238 240 241 240 241 243 247 255 261 267 272 277 281 284 285 285 286 290 294 292 290 288 288 286 276 267 262 261 259 253 250 247 246 248 250 254 258 263 269 274 280 285 289 291 293 294 291 283 271 264 266 261 254 257 268 272 276 286 294 304 304 295 293 299 316 333
249 248 246 246 244 242 242 241 239 240 244 247 242 236 234 231 229 230 235 237 240 241 241 241 242 246 252 259 265 271 276 279 280 282 282 285 290 289 286 284 282 282 278 270 261 255 253 253 250 247 246 247 248 249 251 256 262 266 271 277 282 284 284 281 272 261 256 249 248 253 250 254 270 276 278 277 278 279 282 281 278 277 276 285 310
248 245 243 245 246 244 242 241 241 242 246 248 244 240 235 230 229 228 230 233 236 239 240 241 243 247 251 257 264 270 274 275 274 275 279 285 286 282 281 280 278 277 271 262 255 250 247 245 243 241 241 242 243 245 248 252 259 264 268 273 275 275 266 246 229 221 212 217 233 249 261 281 286 284 281 279 278 277 278 276 274 275 275 278 293
251 248 246 247 247 246 243 241 243 245 247 248 247 245 239 233 232 230 229 231 233 236 239 241 243 247 252 258 263 268 270 269 269 273 280 283 279 275 277 278 274 271 265 257 248 246 243 238 235 235 235 238 239 241 243 244 251 256 258 256 254 253 234 210 201 186 172 190 249 276 288 295 290 286 282 280 278 279 278 274 273 273 273 271 275
257 252 249 249 249 248 246 243 244 246 247 249 248 245 241 236 234 233 231 231 231 234 237 240 242 247 254 259 262 264 263 263 268 276 280 277 271 267 269 270 269 270 265 257 249 242 240 237 234 231 231 234 236 237 239 238 240 242 237 225 219 215 195 183 183 176 174 205 270 293 301 304 297 289 281 275 271 271 270 269 270 270 269 264 256
265 257 247 247 250 249 247 246 246 248 250 250 248 244 238 235 234 234 232 229 229 231 235 239 242 247 254 259 261 259 256 261 271 275 274 271 267 262 262 265 269 269 260 252 251 243 238 237 236 232 228 227 227 230 233 229 222 222 220 208 198 183 170 172 180 189 202 252 291 305 309 305 301 291 273 257 245 245 241 238 239 241 242 227 207
272 266 255 246 247 248 248 248 247 248 251 251 248 243 239 238 237 233 227 225 227 230 233 237 242 248 252 254 253 250 254 263 269 270 270 269 264 258 259 262 263 257 246 246 248 245 240 234 232 228 221 214 214 219 218 211 201 207 209 197 187 169 165 176 187 213 254 301 317 326 319 303 291 242 197 191 188 190 181 169 161 157 160 158 156
276 274 268 254 246 247 247 247 247 247 250 251 247 243 242 241 237 231 226 222 224 228 231 235 241 245 245 245 243 245 253 260 263 264 267 265 258 256 256 253 251 238 233 243 240 243 240 229 223 223 219 209 208 209 204 200 198 199 190 184 183 165 165 186 204 247 298 327 334 344 334 303 189 149 146 146 143 140 134 129 127 123 117 114 113
276 275 273 264 255 252 248 245 244 244 247 248 244 243 243 240 234 229 226 223 223 225 229 231 235 237 237 238 240 246 252 252 255 258 260 259 254 254 250 244 240 226 224 235 231 240 235 219 215 217 217 210 207 207 200 197 194 192 185 180 175 158 165 204 226 272 322 339 345 2 358 155 146 141 134 130 124 116 111 108 105 102 100 100 100
278 276 272 266 260 252 250 248 241 239 243 243 242 242 242 238 233 228 225 224 223 224 228 229 229 228 229 233 240 246 247 246 249 250 251 253 253 250 243 238 233 223 223 226 228 245 233 216 211 210 210 206 206 206 197 190 181 181 179 173 170 162 179 218 232 296 333 346 359 21 61 135 137 135 129 123 115 107 102 101 101 101 100 99 97
279 277 271 267 261 252 249 249 244 237 239 240 240 241 241 238 234 228 225 224 222 223 225 225 226 226 226 230 237 240 240 240 241 242 244 246 246 242 236 232 224 218 221 223 231 244 232 218 212 209 205 203 205 204 201 191 178 178 176 172 175 172 185 221 251 316 340 355 19 56 110 131 133 133 128 122 114 110 108 108 109 107 103 101 101
277 276 271 267 264 258 252 248 244 237 235 237 238 239 239 236 232 229 226 224 222 222 223 221 224 231 232 229 230 233 238 239 236 236 238 240 243 240 234 228 219 213 213 217 225 231 223 214 211 208 203 204 202 200 204 194 178 177 175 175 181 180 188 219 253 299 339 7 51 104 125 131 133 134 131 126 122 122 123 121 117 113 110 109 108
275 275 273 268 264 263 257 249 242 236 233 234 236 237 236 232 229 228 226 223 219 218 221 221 223 232 233 226 221 223 229 234 235 234 233 236 241 238 232 226 215 205 201 207 214 216 213 202 199 200 199 201 197 195 201 190 176 176 177 181 190 194 202 224 245 259 324 39 102 133 138 138 139 139 137 134 134 133 131 128 125 122 119 117 115
277 276 276 270 262 260 258 250 243 238 234 233 236 236 235 232 229 226 223 222 219 217 221 224 225 230 231 227 224 221 220 221 229 234 231 232 235 232 226 218 206 197 192 200 208 208 207 198 192 192 194 197 194 191 193 189 183 182 185 191 201 209 217 233 244 249 252 147 152 155 152 150 150 149 146 144 142 139 137 135 133 129 125 123 123
279 279 277 271 261 255 253 249 244 240 236 233 236 236 234 232 230 226 223 223 222 220 221 225 227 229 227 227 228 226 223 219 222 231 230 228 232 230 223 213 203 197 193 196 205 208 207 203 196 192 194 194 187 186 186 188 191 191 194 202 210 218 225 234 247 246 229 187 169 166 164 162 159 157 154 151 148 145 145 144 140 134 131 128 126
283 281 278 272 263 254 250 247 241 237 234 232 234 235 232 230 229 226 223 223 223 222 222 222 225 226 222 223 226 224 225 222 220 226 228 227 230 229 222 214 206 202 197 195 202 208 207 204 200 196 197 194 187 185 186 190 195 197 202 210 215 221 229 238 248 245 229 199 176 172 173 171 167 164 162 158 156 156 156 154 148 143 138 133 131
288 285 280 273 264 256 251 247 240 235 233 230 232 235 231 229 228 224 222 223 222 221 223 222 223 223 218 218 223 224 224 224 220 224 227 226 230 231 225 217 210 206 203 198 201 208 207 202 201 199 199 197 192 188 189 194 199 203 207 212 217 223 234 245 251 246 233 212 187 178 177 177 177 174 170 168 168 167 165 164 159 155 150 144 145
292 290 284 272 266 256 240 237 238 237 234 229 232 235 232 234 230 222 221 226 224 220 220 220 222 225 220 216 221 225 225 224 221 223 224 220 223 229 228 220 214 213 208 201 203 208 209 205 204 202 199 200 198 194 196 200 203 208 213 215 219 226 238 248 252 245 232 217 198 186 183 184 185 184 181 179 179 175 175 180 180 177 176 173 176
293 294 290 274 269 254 230 232 239 239 236 232 233 232 231 234 228 221 223 227 226 222 219 218 220 224 222 218 220 225 226 224 222 223 223 220 220 225 226 220 216 219 213 205 205 207 209 211 210 205 199 200 203 200 200 204 206 212 217 219 223 229 239 248 249 241 229 217 205 196 193 192 192 191 189 188 187 185 190 203 216 224 228 222 213
292 297 297 283 272 253 235 238 242 239 236 235 234 231 228 226 225 225 226 224 223 224 223 222 223 224 222 218 220 224 224 225 224 223 223 222 221 223 224 221 222 225 220 212 212 209 209 212 212 207 202 203 206 205 205 208 212 216 218 222 227 233 241 247 246 237 225 217 209 204 201 198 198 197 196 196 196 199 209 221 233 242 247 244 234
290 292 291 283 274 260 244 243 244 240 238 238 234 230 226 223 225 228 225 220 220 223 225 226 227 226 222 218 220 224 224 226 226 222 221 220 221 222 220 221 225 227 223 219 218 214 212 213 211 207 207 209 209 210 210 211 214 217 220 225 229 233 239 244 242 233 223 216 211 207 205 203 202 201 201 203 206 212 221 228 235 242 246 245 240
288 284 279 276 272 267 256 247 244 242 241 240 234 228 225 224 224 224 221 218 218 218 220 224 226 226 223 220 220 223 224 225 223 218 218 219 219 221 218 217 221 223 221 221 222 219 216 214 211 208 211 214 213 212 213 213 215 217 222 227 230 232 235 238 238 232 224 217 212 209 208 206 205 205 207 210 214 217 223 229 235 240 242 244 244
289 285 282 280 269 262 259 251 246 243 241 238 233 229 226 224 223 222 221 219 220 219 217 221 226 228 228 225 223 224 225 225 222 216 216 218 219 220 218 217 220 221 222 223 225 224 218 215 214 212 214 217 216 215 215 215 217 219 223 228 230 231 232 234 234 232 227 220 214 212 211 209 208 210 213 215 217 220 223 227 232 236 241 244 246
290 287 287 286 273 260 255 252 246 242 238 236 235 231 228 226 225 226 224 221 221 222 221 222 226 228 229 227 223 225 226 226 222 216 215 217 219 221 219 218 222 225 225 226 228 229 225 220 219 218 218 220 221 220 218 218 220 223 226 230 232 232 231 232 231 230 229 224 218 215 213 212 212 213 216 219 221 223 224 226 230 234 238 242 245
288 290 287 285 281 270 260 254 249 241 235 234 238 235 230 228 228 228 226 221 220 223 224 226 227 228 230 229 225 225 225 226 223 217 216 218 218 221 221 219 223 226 226 227 229 231 230 227 224 222 222 222 224 224 223 223 224 227 231 234 235 234 231 230 229 226 228 228 224 220 217 216 215 216 218 221 224 226 227 229 231 234 236 239 243
285 292 292 289 286 278 265 255 247 241 237 236 238 236 230 227 227 227 225 221 219 221 225 228 226 227 231 231 229 226 225 226 224 219 220 220 216 218 223 221 223 228 228 228 229 230 230 229 227 226 225 223 224 226 225 227 228 231 235 236 236 236 233 231 228 225 226 229 229 226 222 220 219 219 221 223 226 229 230 232 235 236 236 237 240
281 287 291 294 293 281 265 255 246 240 237 237 238 236 228 223 224 226 223 220 219 220 225 227 225 226 229 231 230 229 227 226 223 220 223 223 216 216 223 225 226 230 232 232 231 231 230 230 231 231 230 227 227 228 227 228 230 233 235 236 236 236 236 234 230 226 227 231 233 231 228 226 224 223 225 227 229 231 233 236 237 238 238 237 240
274 280 285 292 296 288 270 259 251 243 237 235 237 235 228 222 221 222 221 221 224 225 224 225 225 226 228 230 231 231 230 230 227 222 223 226 223 222 225 228 229 233 236 236 234 233 233 232 233 233 232 231 232 231 230 228 229 231 233 233 234 236 238 238 233 230 229 232 236 236 233 232 230 229 230 232 232 233 234 237 238 238 239 239 241
270 273 279 286 291 289 277 262 252 245 238 235 233 231 229 224 220 219 219 222 228 228 226 225 225 225 226 229 231 231 232 235 233 227 224 228 231 229 228 229 231 233 237 238 237 237 238 236 235 236 234 233 234 234 233 230 229 232 233 233 234 236 238 240 238 234 232 234 238 239 237 236 235 234 235 236 236 235 236 238 240 241 242 243 245
268 270 275 282 285 284 279 266 254 247 244 238 231 227 226 224 219 218 220 224 229 232 231 227 223 223 225 227 230 230 230 233 233 229 227 228 230 230 229 230 232 233 235 238 238 239 240 234 232 236 236 234 235 235 234 233 232 233 234 234 235 237 239 241 241 239 237 238 242 243 242 241 240 238 239 241 241 240 240 241 242 244 246 248 250
263 269 274 279 282 280 277 269 256 248 246 241 233 227 225 222 218 218 222 226 230 233 233 229 222 221 225 227 228 229 230 231 230 229 229 228 228 229 228 228 231 233 233 234 234 236 239 235 230 234 236 234 235 235 234 234 234 234 234 235 236 237 238 240 242 242 241 241 244 247 247 244 243 242 242 245 246 246 246 246 247 249 251 252 255
258 267 275 277 277 274 273 270 258 248 244 241 235 230 227 223 219 219 222 226 229 232 234 233 228 223 224 224 225 227 228 228 228 229 230 229 226 227 228 228 229 231 232 233 232 232 235 235 230 232 235 234 234 234 234 235 234 233 234 236 237 237 238 239 242 243 242 241 242 244 246 245 243 243 243 245 247 249 251 252 253 254 255 257 260
261 266 275 275 273 270 269 268 258 246 240 239 237 233 229 225 221 220 223 225 227 229 232 236 234 228 225 223 224 229 230 228 230 232 231 230 226 225 227 227 227 230 231 231 232 230 232 233 232 233 236 234 234 235 235 235 234 233 234 236 237 238 239 240 242 243 243 244 245 246 246 246 244 243 242 244 247 250 252 254 255 257 259 263 265
276 272 273 270 267 265 264 262 257 249 241 239 239 236 231 227 223 222 223 225 225 226 229 234 234 232 232 230 230 235 235 231 232 233 232 231 227 224 225 225 227 230 230 229 231 230 230 231 230 232 236 235 234 235 236 235 235 234 236 239 242 243 242 241 242 244 245 247 249 250 250 250 249 246 244 244 246 248 251 253 256 259 263 267 270
279 276 272 268 263 259 257 258 256 251 243 240 240 238 233 229 226 224 224 224 224 224 229 233 231 230 233 232 231 234 235 233 235 235 233 231 228 225 224 223 225 229 229 227 229 230 229 230 228 230 235 236 234 234 235 235 235 236 240 246 249 248 245 245 247 250 251 251 250 251 251 251 251 249 247 246 246 249 252 254 258 261 265 268 270
274 270 268 266 260 255 255 257 255 247 237 234 238 239 234 231 228 225 224 223 223 226 229 231 231 231 234 233 231 233 236 236 235 236 234 231 226 223 224 225 227 229 228 226 228 229 229 230 228 228 234 235 233 232 232 232 233 237 244 247 248 249 250 251 255 257 257 255 252 250 250 251 252 251 250 251 251 253 256 258 261 264 266 268 270
285 272 265 261 258 254 252 254 256 254 241 232 234 237 234 232 230 227 224 223 226 230 232 234 237 238 238 237 236 236 237 235 235 238 239 236 231 226 225 225 226 229 229 227 229 230 229 232 230 227 231 234 232 232 231 229 230 234 239 241 244 249 253 255 257 257 256 254 251 250 251 253 254 255 257 259 260 261 264 264 264 266 267 268 270
300 289 274 263 257 254 251 250 251 254 249 239 234 233 233 233 231 228 225 223 226 231 235 239 242 242 240 237 236 236 235 231 233 238 240 238 235 233 231 226 224 227 227 227 231 231 230 235 233 227 230 233 231 231 230 227 228 230 233 238 243 248 252 254 254 253 252 251 250 250 253 255 257 261 263 263 263 262 263 265 266 267 269 270 272
300 299 288 272 261 254 252 252 250 250 251 246 237 231 230 231 230 228 227 225 226 229 233 240 243 241 238 236 234 234 232 229 230 235 237 234 232 234 237 234 231 231 229 229 233 233 232 237 235 228 230 232 230 232 232 227 228 231 233 238 241 244 249 249 248 250 250 249 248 248 252 255 256 258 259 261 264 262 262 265 268 269 271 273 276
297 297 293 283 270 258 253 252 250 250 250 247 240 232 230 230 230 230 229 225 222 225 230 238 242 238 233 232 231 231 231 230 231 233 233 232 231 232 235 237 237 236 235 234 236 235 234 237 237 233 236 237 233 233 234 232 231 232 234 236 237 240 245 244 243 247 247 245 246 246 251 256 255 255 257 261 264 266 268 271 273 274 276 278 280
296 294 292 287 278 266 256 250 249 249 248 246 240 234 231 231 229 231 232 226 221 223 227 235 240 237 231 230 229 229 229 230 231 231 230 230 231 232 233 235 236 236 237 237 239 238 237 240 240 235 238 244 239 234 235 235 233 234 236 237 234 235 240 239 238 243 244 244 248 250 256 261 259 260 263 265 267 271 275 277 277 278 279 280 281
295 293 291 287 280 270 259 250 247 248 247 243 239 235 234 233 229 229 231 226 221 224 227 231 236 236 232 230 228 226 227 228 230 231 231 231 231 231 231 232 233 234 234 234 236 237 236 240 244 240 237 242 241 235 234 234 234 237 240 238 233 229 231 235 240 245 245 247 253 257 263 266 264 264 266 269 274 277 276 274 275 277 279 280 281
295 293 291 288 281 271 261 251 244 245 246 242 237 235 235 234 231 229 230 227 221 222 226 228 231 234 233 230 227 224 223 226 229 231 231 232 232 231 231 232 232 233 234 232 232 233 233 235 243 245 242 241 240 236 236 237 239 240 239 237 233 229 229 234 241 247 248 249 254 259 263 267 269 270 268 270 275 278 276 274 274 277 281 282 283
293 292 291 288 281 270 260 251 244 243 244 240 236 235 234 234 233 229 229 229 225 222 224 226 228 231 233 232 231 227 224 225 228 231 232 233 233 232 233 233 233 233 233 233 231 232 232 233 237 242 244 243 240 237 238 242 245 241 237 235 234 231 231 235 241 246 248 250 255 258 261 266 270 271 269 269 274 278 280 280 279 281 283 285 286
291 290 289 286 280 270 259 251 245 242 241 236 233 234 232 233 234 231 228 227 225 221 222 225 226 228 230 231 232 232 230 230 231 231 231 232 233 233 233 233 232 232 232 233 232 232 232 233 234 238 241 241 240 239 238 241 243 237 232 232 233 231 232 236 241 247 251 251 252 256 261 265 269 271 270 273 277 279 281 284 286 287 286 287 288
291 289 288 285 280 272 260 251 245 242 240 235 231 231 230 231 234 232 226 224 222 220 221 224 225 226 226 228 230 229 228 231 233 231 232 232 231 232 232 230 230 229 229 231 231 231 233 233 234 237 239 240 240 240 237 235 235 229 225 227 231 231 233 236 240 247 253 253 253 259 265 267 271 274 275 279 283 283 283 285 287 288 288 289 290
290 290 288 283 278 271 261 253 246 242 240 235 230 230 230 232 234 230 224 222 222 221 221 224 225 225 224 225 228 226 224 228 231 231 231 232 231 230 230 228 228 228 228 227 228 230 232 233 233 236 238 239 239 238 236 233 231 229 227 230 233 234 238 243 245 249 253 255 256 263 269 271 274 278 280 282 284 285 286 287 288 289 290 291 293
Height
3180 3181 3182 3182 3183 3183 3183 3183 3183 3184 3185 3186 3188 3189 3190 3190 3190 3191 3191 3191 3192 3192 3193 3193 3194 3194 3194 3194 3194 3194 3194 3195 3195 3194 3194 3194 3194 3193 3193 3192 3191 3191 3190 3189 3189 3188 3187 3187 3186 3186 3186 3186 3187 3187 3187 3187 3187 3187 3186 3186 3186 3185 3184 3184 3183 3182 3181 3180 3179 3177 3176 3176 3175 3175 3174 3173 3173 3172 3172 3171 3171 3170 3170 3170 3169
3179 3180 3180 3181 3181 3181 3182 3182 3182 3182 3183 3184 3186 3187 3188 3188 3188 3189 3189 3190 3190 3191 3191 3192 3193 3193 3193 3193 3193 3193 3193 3193 3193 3193 3192 3192 3192 3191 3191 3190 3189 3189 3188 3187 3186 3186 3185 3185 3184 3184 3184 3185 3185 3185 3186 3186 3186 3185 3185 3185 3184 3184 3183 3182 3182 3181 3180 3179 3177 3177 3176 3175 3175 3174 3174 3173 3173 3172 3172 3171 3171 3171 3170 3170 3170
3178 3178 3179 3179 3180 3180 3181 3181 3182 3181 3181 3182 3184 3185 3186 3187 3187 3188 3188 3188 3188 3189 3190 3190 3191 3192 3192 3192 3192 3191 3191 3192 3192 3191 3191 3190 3190 3190 3189 3188 3188 3187 3186 3185 3185 3184 3184 3183 3183 3183 3183 3183 3184 3184 3184 3184 3184 3184 3184 3183 3183 3182 3182 3181 3180 3179 3178 3177 3177 3176 3175 3175 3174 3174 3174 3173 3173 3172 3172 3171 3171 3171 3171 3170 3170
3177 3177 3178 3178 3178 3179 3179 3180 3181 3180 3179 3180 3182 3183 3184 3185 3185 3186 3186 3187 3187 3188 3188 3189 3190 3190 3190 3190 3190 3190 3190 3190 3190 3190 3189 3189 3189 3188 3187 3187 3186 3185 3185 3184 3183 3183 3183 3182 3182 3182 3182 3182 3182 3183 3183 3183 3183 3183 3182 3182 3182 3181 3180 3180 3179 3178 3177 3177 3176 3175 3175 3175 3174 3174 3174 3173 3173 3172 3172 3172 3171 3171 3171 3170 3170
3176 3176 3176 3176 3177 3177 3178 3178 3179 3179 3178 3178 3180 3181 3181 3183 3184 3184 3185 3185 3185 3186 3187 3187 3188 3188 3189 3189 3189 3189 3189 3189 3189 3188 3188 3188 3187 3187 3186 3185 3185 3184 3183 3183 3182 3182 3182 3181 3181 3181 3181 3181 3181 3181 3181 3182 3181 3181 3181 3181 3180 3180 3179 3179 3178 3177 3177 3176 3176 3175 3175 3174 3174 3174 3174 3173 3173 3172 3172 3172 3171 3171 3171 3171 3170
3174 3174 3174 3174 3175 3176 3176 3176 3177 3177 3176 3177 3178 3179 3179 3180 3181 3182 3182 3183 3184 3184 3185 3185 3186 3187 3187 3187 3188 3188 3188 3188 3187 3187 3187 3186 3186 3185 3184 3184 3183 3183 3182 3182 3181 3181 3181 3181 3180 3180 3180 3180 3180 3180 3180 3180 3180 3180 3180 3180 3179 3179 3178 3178 3177 3177 3176 3176 3175 3175 3175 3174 3174 3174 3174 3173 3173 3172 3172 3172 3171 3171 3171 3171 3170
3171 3171 3171 3172 3173 3174 3174 3175 3175 3175 3175 3175 3176 3176 3177 3178 3179 3180 3180 3181 3182 3182 3183 3183 3184 3185 3185 3186 3186 3186 3186 3186 3186 3186 3185 3185 3185 3184 3183 3183 3182 3182 3181 3181 3180 3180 3180 3180 3180 3180 3180 3180 3180 3179 3179 3179 3179 3179 3179 3179 3178 3178 3177 3177 3176 3176 3176 3176 3175 3174 3174 3174 3174 3174 3173 3173 3172 3172 3171 3171 3171 3171 3171 3171 3171
3168 3168 3169 3169 3170 3172 3172 3173 3173 3174 3173 3173 3174 3174 3175 3175 3176 3177 3178 3179 3180 3180 3181 3181 3182 3183 3183 3184 3185 3185 3185 3185 3185 3184 3184 3184 3184 3183 3182 3182 3181 3181 3180 3180 3179 3179 3179 3179 3179 3179 3179 3179 3179 3179 3179 3178 3178 3178 3178 3178 3177 3177 3177 3176 3176 3176 3176 3176 3175 3174 3174 3174 3173 3173 3173 3172 3172 3171 3171 3171 3170 3170 3170 3170 3170
3166 3165 3167 3168 3169 3170 3170 3171 3171 3172 3172 3172 3172 3172 3172 3173 3174 3175 3176 3177 3177 3178 3179 3179 3180 3181 3181 3182 3183 3183 3183 3183 3183 3183 3183 3182 3182 3182 3181 3181 3180 3180 3179 3179 3178 3178 3178 3178 3178 3178 3178 3178 3178 3178 3178 3178 3177 3177 3177 3177 3177 3177 3176 3176 3176 3176 3176 3175 3175 3174 3174 3173 3173 3172 3172 3172 3171 3171 3170 3170 3170 3170 3170 3170 3170
3165 3165 3165 3166 3167 3168 3168 3169 3169 3170 3170 3170 3170 3170 3170 3170 3171 3172 3173 3174 3175 3176 3177 3177 3178 3179 3180 3180 3181 3181 3181 3181 3181 3181 3181 3181 3181 3181 3180 3179 3179 3179 3178 3177 3177 3177 3177 3178 3178 3178 3178 3178 3178 3177 3177 3177 3177 3176 3176 3177 3177 3177 3177 3176 3176 3176 3175 3175 3175 3174 3173 3173 3172 3172 3172 3171 3171 3170 3170 3170 3170 3170 3170 3171 3171
3164 3163 3163 3164 3165 3166 3166 3167 3167 3167 3168 3168 3168 3168 3168 3168 3169 3170 3171 3172 3173 3174 3175 3175 3176 3177 3178 3178 3179 3179 3179 3180 3180 3180 3180 3180 3180 3179 3179 3178 3178 3178 3177 3177 3177 3177 3177 3177 3177 3177 3177 3177 3177 3177 3176 3176 3176 3176 3176 3176 3176 3176 3177 3176 3176 3176 3175 3175 3174 3174 3173 3172 3172 3172 3171 3171 3171 3170 3170 3170 3170 3170 3171 3171 3172
3162 3161 3161 3163 3164 3165 3165 3165 3165 3165 3166 3166 3166 3166 3166 3166 3167 3168 3169 3170 3171 3172 3173 3173 3174 3175 3175 3176 3177 3177 3178 3178 3178 3178 3178 3178 3178 3178 3178 3177 3177 3177 3176 3176 3176 3176 3176 3176 3176 3176 3176 3176 3176 3176 3176 3176 3176 3176 3176 3176 3176 3176 3177 3176 3176 3176 3175 3175 3174 3174 3173 3172 3172 3172 3171 3171 3171 3171 3171 3171 3171 3171 3172 3172 3172
3158 3158 3160 3162 3163 3163 3162 3162 3162 3163 3163 3163 3164 3164 3164 3164 3165 3165 3167 3168 3169 3170 3171 3171 3172 3172 3173 3174 3175 3175 3176 3176 3177 3177 3177 3177 3177 3177 3177 3176 3176 3176 3175 3175 3175 3175 3175 3175 3175 3175 3175 3176 3176 3175 3175 3176 3175 3176 3176 3176 3176 3177 3176 3176 3176 3175 3175 3175 3174 3174 3173 3172 3172 3172 3172 3172 3172 3172 3172 3172 3172 3172 3172 3173 3173
3155 3155 3156 3157 3159 3160 3159 3159 3160 3160 3160 3160 3161 3162 3162 3162 3163 3164 3165 3165 3167 3168 3168 3169 3170 3170 3170 3171 3172 3173 3174 3174 3175 3175 3176 3176 3176 3176 3175 3175 3175 3175 3175 3175 3175 3175 3175 3175 3175 3174 3174 3175 3175 3175 3175 3176 3175 3175 3175 3176 3176 3176 3176 3176 3176 3175 3175 3174 3174 3173 3173 3173 3173 3173 3173 3173 3173 3173 3173 3173 3173 3173 3173 3173 3173
3153 3153 3152 3153 3154 3156 3156 3156 3157 3157 3157 3157 3159 3160 3160 3160 3161 3162 3163 3163 3164 3165 3166 3167 3168 3168 3168 3169 3170 3171 3172 3173 3173 3174 3175 3175 3175 3174 3174 3174 3174 3174 3174 3174 3174 3174 3174 3174 3174 3174 3174 3174 3174 3174 3175 3176 3175 3175 3175 3176 3176 3176 3175 3175 3175 3175 3175 3174 3174 3174 3173 3173 3173 3174 3174 3174 3174 3174 3174 3174 3174 3174 3174 3174 3175
3150 3149 3149 3149 3149 3151 3152 3153 3153 3154 3153 3155 3156 3157 3158 3158 3159 3160 3161 3162 3162 3163 3164 3165 3166 3166 3166 3167 3168 3169 3170 3171 3171 3173 3173 3174 3173 3173 3173 3172 3172 3173 3173 3173 3173 3174 3173 3173 3173 3173 3173 3173 3174 3174 3174 3175 3175 3175 3175 3175 3175 3175 3175 3175 3175 3175 3174 3174 3174 3174 3174 3174 3174 3174 3174 3174 3174 3174 3175 3175 3175 3175 3175 3175 3176
3147 3146 3146 3146 3146 3147 3148 3149 3150 3150 3151 3152 3154 3155 3155 3156 3157 3158 3159 3160 3160 3161 3162 3163 3164 3165 3165 3165 3166 3168 3169 3170 3170 3171 3172 3172 3172 3172 3172 3171 3171 3172 3172 3173 3173 3173 3173 3173 3173 3173 3173 3173 3173 3173 3174 3175 3175 3175 3175 3175 3175 3175 3175 3175 3175 3175 3174 3174 3174 3174 3174 3174 3174 3174 3175 3175 3175 3175 3175 3176 3176 3176 3176 3176 3176
3143 3143 3143 3143 3143 3144 3144 3145 3147 3148 3149 3150 3151 3152 3153 3154 3155 3156 3157 3158 3158 3159 3160 3161 3162 3163 3163 3164 3164 3166 3167 3168 3169 3170 3170 3171 3171 3171 3170 3170 3170 3171 3171 3172 3172 3172 3172 3172 3172 3172 3173 3173 3173 3173 3174 3174 3174 3174 3175 3175 3175 3175 3175 3175 3175 3174 3174 3174 3174 3174 3174 3174 3174 3175 3175 3175 3175 3176 3176 3176 3176 3176 3176 3176 3177
3140 3140 3140 3140 3139 3140 3140 3142 3143 3145 3146 3148 3149 3150 3151 3152 3152 3153 3154 3155 3157 3158 3158 3159 3160 3161 3161 3162 3163 3164 3165 3166 3168 3168 3169 3169 3169 3169 3169 3169 3169 3170 3170 3171 3171 3172 3172 3171 3172 3172 3172 3172 3172 3173 3174 3174 3174 3174 3175 3175 3175 3175 3175 3175 3174 3174 3174 3174 3174 3174 3174 3174 3175 3175 3175 3175 3176 3176 3176 3176 3177 3177 3177 3177 3177
3137 3137 3136 3135 3135 3135 3136 3138 3140 3142 3144 3145 3146 3147 3149 3149 3150 3151 3152 3153 3154 3156 3156 3156 3157 3158 3159 3159 3160 3162 3163 3165 3166 3167 3167 3167 3168 3168 3168 3168 3168 3169 3169 3169 3170 3171 3171 3171 3171 3172 3172 3172 3172 3172 3173 3174 3174 3174 3174 3174 3175 3175 3175 3174 3174 3174 3174 3174 3174 3174 3174 3175 3175 3175 3176 3176 3176 3176 3176 3177 3177 3177 3177 3177 3177
3133 3133 3131 3131 3132 3132 3133 3134 3136 3139 3141 3143 3143 3144 3145 3146 3147 3148 3149 3150 3152 3153 3154 3154 3155 3155 3156 3157 3158 3160 3161 3163 3164 3165 3165 3166 3167 3166 3166 3166 3167 3167 3168 3168 3169 3169 3170 3170 3171 3171 3171 3171 3172 3172 3173 3173 3173 3174 3174 3174 3174 3174 3174 3174 3173 3173 3173 3173 3174 3174 3175 3175 3175 3176 3176 3176 3176 3176 3177 3177 3177 3177 3177 3177 3177
3131 3129 3128 3128 3128 3129 3130 3131 3132 3136 3138 3140 3142 3142 3143 3144 3144 3146 3147 3148 3149 3150 3150 3151 3152 3153 3154 3155 3156 3158 3159 3161 3162 3163 3164 3165 3165 3165 3165 3165 3166 3166 3166 3167 3168 3168 3169 3169 3170 3170 3171 3171 3171 3172 3172 3173 3173 3173 3173 3173 3173 3173 3173 3173 3173 3173 3173 3173 3173 3174 3174 3175 3175 3176 3176 3176 3176 3177 3177 3177 3177 3177 3177 3177 3177
3128 3127 3126 3126 3126 3126 3128 3129 3130 3133 3136 3137 3140 3140 3141 3142 3142 3143 3144 3145 3146 3146 3147 3148 3149 3150 3151 3152 3154 3156 3157 3159 3160 3161 3162 3163 3163 3164 3164 3165 3165 3165 3165 3166 3167 3168 3168 3168 3169 3169 3170 3170 3170 3171 3171 3172 3172 3173 3173 3173 3173 3172 3173 3172 3172 3172 3172 3172 3173 3173 3174 3174 3175 3175 3176 3176 3176 3177 3177 3177 3178 3178 3177 3177 3177
3126 3125 3125 3125 3125 3126 3127 3128 3129 3132 3134 3136 3137 3138 3138 3139 3140 3140 3141 3142 3143 3144 3144 3145 3146 3148 3149 3150 3152 3153 3155 3157 3158 3159 3161 3161 3162 3163 3163 3164 3164 3164 3164 3165 3166 3167 3167 3167 3167 3168 3169 3169 3169 3170 3170 3171 3171 3171 3172 3172 3172 3172 3172 3172 3172 3172 3172 3172 3172 3173 3173 3174 3174 3175 3175 3176 3176 3177 3177 3177 3177 3177 3177 3177 3177
3125 3125 3124 3125 3125 3125 3126 3127 3128 3130 3132 3133 3134 3135 3136 3137 3137 3138 3138 3139 3140 3141 3142 3143 3144 3145 3146 3147 3149 3151 3152 3154 3156 3157 3159 3160 3160 3161 3162 3162 3163 3163 3164 3164 3165 3165 3165 3165 3166 3167 3168 3168 3168 3169 3169 3170 3170 3170 3170 3171 3171 3171 3171 3171 3171 3171 3171 3171 3172 3172 3173 3173 3174 3174 3175 3175 3176 3176 3176 3176 3177 3177 3177 3177 3177
3125 3125 3124 3124 3124 3124 3125 3126 3127 3128 3129 3130 3131 3133 3133 3134 3135 3135 3135 3136 3137 3138 3139 3139 3140 3142 3143 3144 3146 3148 3150 3152 3154 3155 3157 3158 3158 3159 3160 3161 3162 3162 3163 3163 3163 3164 3164 3164 3165 3166 3166 3167 3167 3168 3168 3168 3169 3169 3169 3170 3170 3170 3170 3170 3170 3170 3171 3171 3171 3172 3172 3172 3173 3174 3174 3175 3175 3175 3176 3176 3176 3176 3176 3177 3177
3124 3124 3124 3123 3123 3123 3123 3124 3125 3126 3126 3127 3128 3130 3131 3131 3132 3133 3133 3134 3134 3136 3136 3136 3138 3140 3142 3143 3143 3145 3148 3150 3152 3153 3155 3156 3157 3157 3158 3159 3160 3161 3161 3162 3162 3162 3163 3163 3164 3164 3165 3165 3166 3166 3167 3167 3167 3168 3168 3169 3169 3169 3169 3169 3169 3169 3170 3170 3170 3171 3171 3172 3172 3173 3173 3174 3174 3174 3174 3174 3175 3175 3175 3176 3176
3123 3123 3122 3121 3121 3121 3121 3122 3123 3124 3124 3125 3125 3126 3127 3128 3129 3130 3131 3132 3133 3134 3134 3134 3135 3137 3140 3141 3141 3143 3146 3148 3149 3151 3152 3153 3154 3155 3156 3157 3158 3159 3160 3160 3160 3161 3161 3162 3162 3163 3163 3164 3164 3165 3165 3166 3166 3166 3167 3167 3168 3168 3168 3168 3168 3168 3169 3169 3170 3170 3170 3171 3171 3172 3172 3173 3173 3173 3173 3173 3173 3174 3174 3174 3175
3122 3122 3121 3120 3119 3119 3119 3120 3120 3121 3122 3123 3123 3124 3124 3125 3126 3126 3127 3129 3130 3132 3133 3133 3133 3135 3137 3139 3140 3142 3143 3145 3147 3148 3150 3151 3152 3153 3154 3156 3157 3157 3158 3158 3159 3159 3159 3160 3161 3161 3162 3162 3163 3163 3164 3164 3165 3165 3165 3166 3166 3167 3167 3167 3167 3167 3167 3168 3168 3169 3169 3170 3170 3170 3171 3171 3172 3172 3172 3172 3172 3172 3173 3173 3173
3121 3120 3120 3119 3118 3117 3117 3117 3118 3118 3119 3120 3121 3121 3122 3123 3123 3124 3125 3126 3127 3129 3131 3131 3131 3132 3135 3137 3139 3141 3142 3143 3144 3146 3147 3148 3150 3151 3152 3153 3154 3155 3155 3156 3157 3157 3157 3158 3159 3159 3160 3161 3161 3162 3162 3163 3163 3164 3164 3164 3165 3165 3166 3166 3166 3166 3166 3167 3167 3167 3168 3168 3169 3169 3169 3170 3170 3171 3171 3171 3171 3171 3171 3172 3172
3120 3119 3118 3118 3117 3115 3115 3115 3115 3116 3116 3117 3118 3119 3119 3120 3121 3122 3123 3124 3125 3127 3127 3128 3128 3130 3132 3134 3136 3138 3140 3141 3142 3143 3145 3147 3147 3148 3150 3151 3152 3153 3153 3154 3154 3154 3155 3156 3157 3157 3158 3159 3159 3160 3160 3161 3162 3162 3163 3163 3163 3164 3164 3164 3164 3164 3165 3165 3166 3166 3167 3167 3167 3168 3168 3169 3169 3169 3169 3170 3170 3170 3170 3170 3170
3118 3117 3117 3116 3115 3114 3113 3113 3113 3113 3113 3114 3115 3116 3117 3118 3118 3119 3121 3122 3123 3124 3124 3125 3126 3127 3130 3132 3133 3135 3137 3139 3140 3141 3143 3144 3145 3146 3148 3149 3150 3150 3151 3152 3152 3152 3153 3154 3155 3156 3156 3157 3158 3158 3159 3159 3160 3161 3161 3161 3162 3162 3163 3163 3163 3163 3163 3164 3164 3165 3165 3166 3166 3166 3167 3167 3167 3168 3168 3168 3168 3168 3168 3168 3168
3115 3115 3115 3114 3114 3113 3112 3111 3111 3111 3111 3111 3112 3113 3115 3116 3116 3117 3118 3120 3120 3121 3122 3123 3125 3126 3128 3129 3131 3133 3135 3136 3138 3139 3140 3142 3143 3144 3146 3147 3147 3148 3149 3150 3150 3150 3151 3152 3153 3154 3154 3155 3156 3156 3157 3158 3158 3159 3159 3159 3160 3160 3161 3161 3161 3162 3162 3162 3163 3163 3164 3164 3165 3165 3165 3166 3166 3166 3167 3167 3167 3167 3167 3167 3167
3113 3113 3112 3112 3112 3111 3110 3110 3109 3109 3109 3109 3110 3111 3112 3113 3114 3115 3116 3118 3119 3120 3121 3122 3123 3124 3125 3126 3128 3130 3132 3133 3135 3136 3137 3139 3141 3142 3143 3144 3145 3146 3147 3147 3148 3149 3149 3150 3151 3152 3152 3153 3154 3155 3155 3156 3156 3157 3157 3158 3158 3158 3159 3160 3160 3160 3160 3160 3161 3162 3162 3163 3163 3164 3164 3164 3165 3165 3165 3166 3166 3166 3166 3166 3165
3110 3110 3110 3109 3109 3109 3108 3107 3107 3107 3107 3107 3107 3108 3109 3110 3112 3113 3114 3116 3117 3118 3120 3120 3120 3121 3122 3123 3126 3128 3129 3131 3133 3134 3134 3136 3138 3139 3140 3142 3142 3143 3144 3145 3146 3147 3147 3147 3149 3150 3150 3151 3152 3153 3153 3154 3154 3155 3156 3156 3156 3157 3157 3158 3158 3158 3159 3159 3159 3160 3160 3161 3162 3162 3162 3163 3163 3164 3164 3164 3164 3164 3164 3164 3164
3107 3107 3107 3106 3106 3106 3105 3105 3104 3105 3105 3105 3105 3106 3107 3108 3109 3110 3112 3113 3114 3116 3117 3117 3118 3119 3121 3122 3123 3125 3127 3128 3130 3130 3131 3133 3135 3136 3137 3139 3140 3140 3141 3142 3144 3144 3144 3145 3146 3147 3148 3149 3150 3150 3151 3152 3152 3153 3154 3154 3154 3155 3156 3156 3156 3157 3157 3157 3157 3158 3158 3159 3159 3160 3160 3161 3161 3162 3162 3162 3163 3163 3163 3162 3162
3104 3104 3104 3104 3103 3102 3102 3102 3101 3101 3101 3102 3103 3104 3105 3106 3106 3108 3109 3110 3111 3113 3115 3115 3116 3116 3118 3119 3121 3122 3123 3124 3126 3127 3129 3130 3132 3133 3135 3136 3136 3137 3138 3139 3140 3141 3142 3143 3144 3145 3146 3146 3147 3148 3149 3150 3150 3151 3152 3152 3153 3153 3153 3154 3154 3155 3155 3155 3155 3156 3156 3157 3157 3157 3158 3158 3159 3160 3160 3160 3161 3161 3161 3161 3161
3101 3102 3102 3101 3100 3099 3098 3098 3097 3096 3097 3099 3100 3101 3102 3103 3104 3105 3106 3107 3109 3110 3112 3114 3114 3114 3115 3117 3119 3119 3119 3121 3123 3124 3126 3127 3129 3130 3131 3132 3133 3134 3135 3136 3137 3138 3139 3140 3141 3142 3143 3144 3145 3146 3147 3148 3148 3149 3150 3150 3151 3151 3151 3152 3152 3153 3153 3153 3154 3154 3154 3154 3155 3155 3156 3156 3157 3157 3158 3158 3158 3158 3158 3159 3159
3099 3099 3099 3098 3098 3097 3095 3094 3093 3092 3093 3095 3096 3098 3099 3100 3101 3102 3102 3103 3106 3108 3109 3111 3111 3111 3113 3115 3116 3116 3117 3119 3120 3122 3123 3124 3125 3126 3127 3129 3129 3130 3131 3133 3134 3135 3136 3136 3137 3139 3140 3141 3142 3143 3144 3146 3147 3147 3148 3149 3149 3149 3149 3150 3150 3150 3151 3151 3151 3151 3152 3152 3153 3153 3154 3154 3155 3155 3155 3156 3156 3156 3156 3156 3156
3096 3096 3096 3096 3095 3094 3092 3091 3090 3090 3091 3092 3093 3094 3096 3097 3098 3099 3099 3100 3102 3104 3106 3107 3108 3109 3111 3113 3114 3114 3115 3116 3118 3119 3120 3120 3121 3122 3124 3125 3126 3127 3128 3129 3130 3130 3132 3133 3134 3135 3137 3138 3139 3141 3142 3144 3145 3145 3146 3146 3147 3147 3147 3148 3148 3148 3148 3148 3149 3149 3149 3150 3151 3151 3152 3152 3152 3153 3153 3153 3153 3154 3154 3153 3153
3093 3092 3092 3092 3092 3091 3089 3087 3087 3088 3089 3090 3090 3091 3093 3094 3095 3096 3096 3097 3100 3101 3102 3104 3106 3107 3109 3110 3111 3112 3113 3115 3115 3116 3118 3119 3119 3120 3121 3122 3124 3124 3125 3126 3126 3127 3128 3130 3131 3132 3134 3135 3136 3138 3140 3141 3142 3143 3143 3143 3144 3144 3145 3145 3145 3146 3146 3146 3146 3147 3147 3148 3148 3149 3150 3150 3150 3151 3150 3150 3151 3151 3151 3150 3150
3090 3089 3088 3088 3088 3087 3086 3084 3084 3085 3087 3087 3086 3087 3090 3091 3093 3093 3093 3095 3097 3098 3099 3101 3103 3105 3106 3107 3108 3109 3112 3113 3113 3113 3115 3117 3118 3119 3119 3119 3121 3122 3123 3124 3123 3124 3126 3127 3127 3129 3131 3132 3134 3135 3137 3139 3140 3141 3141 3141 3142 3142 3142 3143 3143 3143 3143 3143 3144 3145 3145 3146 3147 3147 3148 3148 3148 3148 3147 3147 3147 3148 3147 3147 3147
3086 3085 3084 3084 3083 3083 3082 3081 3081 3082 3083 3084 3083 3085 3087 3089 3090 3090 3090 3091 3092 3094 3096 3098 3100 3102 3103 3104 3105 3106 3108 3109 3110 3111 3112 3114 3115 3116 3117 3117 3119 3120 3121 3122 3121 3121 3123 3124 3124 3127 3129 3130 3131 3133 3134 3136 3137 3138 3138 3139 3139 3140 3140 3141 3141 3141 3141 3142 3142 3143 3143 3144 3144 3145 3145 3145 3145 3145 3144 3144 3145 3145 3144 3144 3143
3083 3081 3081 3080 3079 3079 3078 3078 3078 3079 3080 3081 3082 3083 3084 3085 3086 3086 3086 3086 3087 3090 3093 3095 3097 3098 3100 3100 3102 3103 3105 3106 3107 3108 3109 3111 3112 3113 3114 3115 3116 3117 3118 3119 3119 3120 3121 3121 3122 3125 3127 3127 3129 3130 3131 3132 3134 3134 3135 3136 3137 3138 3138 3139 3139 3139 3139 3140 3140 3141 3141 3142 3142 3142 3143 3143 3142 3141 3141 3141 3141 3141 3140 3140 3139
3079 3078 3077 3076 3075 3075 3074 3074 3075 3075 3076 3078 3080 3080 3080 3081 3082 3082 3081 3082 3083 3086 3090 3092 3093 3095 3097 3097 3099 3101 3102 3103 3104 3105 3106 3108 3109 3110 3111 3111 3112 3114 3115 3116 3117 3118 3119 3119 3119 3122 3125 3125 3126 3127 3128 3129 3131 3131 3132 3133 3134 3135 3136 3136 3137 3137 3137 3138 3138 3139 3139 3139 3140 3140 3140 3140 3138 3137 3138 3139 3138 3137 3137 3136 3135
3074 3074 3073 3072 3071 3071 3070 3070 3071 3071 3072 3074 3076 3077 3077 3078 3077 3077 3077 3078 3080 3083 3086 3089 3090 3092 3094 3095 3096 3097 3099 3099 3100 3102 3103 3105 3106 3107 3108 3108 3110 3111 3112 3113 3114 3115 3116 3117 3116 3119 3122 3122 3123 3124 3125 3126 3128 3128 3129 3130 3131 3132 3133 3133 3134 3134 3135 3135 3136 3136 3137 3136 3137 3138 3137 3136 3135 3134 3135 3135 3135 3133 3133 3132 3131
3070 3069 3069 3068 3067 3066 3066 3066 3066 3066 3067 3069 3071 3072 3073 3074 3074 3074 3074 3075 3077 3080 3083 3086 3088 3090 3091 3092 3092 3094 3095 3096 3097 3099 3100 3101 3103 3103 3104 3105 3107 3108 3109 3110 3111 3112 3113 3114 3114 3116 3118 3119 3120 3121 3122 3123 3124 3125 3126 3127 3128 3129 3130 3130 3131 3132 3132 3133 3133 3134 3134 3133 3134 3136 3135 3132 3132 3131 3130 3130 3131 3130 3129 3128 3127
3065 3064 3064 3063 3063 3062 3061 3061 3061 3062 3063 3065 3066 3067 3069 3070 3071 3072 3072 3073 3075 3078 3080 3083 3085 3087 3088 3088 3088 3089 3091 3092 3094 3096 3097 3098 3099 3100 3101 3102 3104 3105 3106 3107 3108 3109 3110 3111 3112 3114 3114 3115 3116 3118 3119 3120 3121 3122 3123 3124 3125 3126 3127 3127 3128 3128 3129 3130 3130 3130 3131 3130 3130 3132 3132 3130 3129 3129 3125 3124 3126 3127 3125 3123 3122
3061 3060 3059 3058 3057 3057 3057 3056 3057 3057 3059 3060 3062 3063 3065 3066 3067 3068 3069 3071 3072 3075 3077 3079 3081 3083 3085 3086 3086 3086 3088 3089 3091 3092 3093 3094 3095 3096 3098 3099 3100 3101 3103 3103 3105 3106 3107 3108 3110 3111 3111 3112 3113 3114 3116 3117 3118 3119 3120 3121 3122 3123 3124 3124 3125 3124 3124 3126 3126 3126 3127 3127 3126 3127 3128 3127 3126 3126 3123 3120 3120 3121 3120 3119 3118
3057 3055 3054 3053 3052 3052 3052 3052 3052 3053 3055 3056 3057 3058 3060 3061 3063 3064 3066 3068 3070 3071 3074 3076 3078 3079 3081 3083 3084 3085 3086 3087 3088 3089 3090 3091 3092 3093 3094 3096 3097 3098 3099 3100 3101 3103 3104 3105 3106 3107 3108 3109 3110 3111 3112 3113 3115 3116 3117 3118 3119 3120 3121 3121 3121 3120 3120 3121 3123 3123 3123 3122 3122 3122 3124 3123 3122 3120 3119 3118 3116 3115 3114 3114 3113
3054 3052 3050 3049 3048 3047 3047 3048 3049 3049 3051 3052 3053 3054 3055 3057 3058 3060 3063 3065 3066 3068 3070 3072 3073 3075 3078 3079 3081 3082 3084 3084 3085 3086 3086 3087 3088 3090 3091 3092 3093 3095 3096 3097 3098 3099 3100 3102 3103 3104 3105 3106 3107 3108 3109 3110 3112 3113 3114 3115 3116 3117 3117 3117 3118 3117 3115 3117 3120 3120 3118 3118 3118 3118 3119 3120 3118 3115 3113 3113 3112 3110 3109 3108 3108